Location: Pollockville
(51.1000°N, 111.5833°W)
Time: 17:47:44
(UTC+00:00)

Envisat - Visible Passes

Search period start: 10 June 2023 00:00
Search period end: 20 June 2023 00:00
Orbit: 763 x 765 km, 98.2° (Epoch: 10 June)

Date Brightness Start Highest point End Pass type
(mag) Time Alt. Az. Time Alt. Az. Time Alt. Az.
10 Jun 5.7 09:48:53 10° ENE 09:50:56 12° E 09:52:58 10° ESE visible
12 Jun 5.4 10:12:18 10° NE 10:16:00 20° E 10:19:40 10° SE visible
15 Jun 5.5 10:00:20 10° NE 10:03:23 16° E 10:06:27 10° SE visible
18 Jun 5.7 09:48:38 10° ENE 09:50:45 12° E 09:52:52 10° ESE visible
